Flight Track Log - Related Links

Times and Time Zones

All times are in EST time to prevent confusion due to time zone crossing. See the SWA2141 flight status page for this flight to view local times or setup timezone preferences in your user account.

Time Position Orientation Groundspeed Altitude Reporting Facility
EST Latitude Longitude Course Direction KTS MPH feet Rate Location/Type
Fri 09:41:25 AM 37.3833 -121.9667 360° North 174 200 2,800  Level Northern Cal TRACON
Fri 09:42:19 AM 37.4333 -121.9667 360° North 207 238 5,000 1,158 Climbing Northern Cal TRACON
Fri 09:43:19 AM 37.4167 -121.9167 113° Southeast 219 252 5,000 750 Level Northern Cal TRACON
Fri 09:44:19 AM 37.3667 -121.8500 133° Southeast 223 257 6,500 1,858 Climbing Northern Cal TRACON
Fri 09:45:12 AM 37.3392 -121.8003 125° Southeast 233 268 8,500 2,632 Climbing Oakland Center
Fri 09:46:13 AM 37.2775 -121.7322 139° Southeast 290 334 11,500 3,639 Climbing Oakland Center
Fri 09:47:14 AM 37.2081 -121.6539 138° Southeast 327 376 15,900 3,836 Climbing Oakland Center
Fri 09:48:15 AM 37.1369 -121.5725 138° Southeast 342 394 19,300 3,344 Climbing Oakland Center
Fri 09:49:16 AM 37.0556 -121.4836 139° Southeast 373 429 22,700 3,421 Climbing Oakland Center
Fri 09:50:16 AM 36.9819 -121.3889 134° Southeast 377 434 26,200 2,182 Climbing Oakland Center
Fri 09:51:17 AM 36.9114 -121.2839 130° Southeast 391 450 27,100 1,426 Climbing Oakland Center
Fri 09:52:18 AM 36.8383 -121.1767 130° Southeast 404 465 29,100 2,016 Climbing Oakland Center
Fri 09:53:19 AM 36.7564 -121.0589 131° Southeast 428 493 31,200 1,835 Climbing Oakland Center
Fri 09:54:19 AM 36.6747 -120.9414 131° Southeast 445 512 32,800 1,983 Climbing Oakland Center
Fri 09:55:20 AM 36.5933 -120.8197 130° Southeast 456 525 35,200 2,262 Climbing Oakland Center
Fri 09:56:21 AM 36.5133 -120.7006 130° Southeast 450 518 37,400 1,869 Climbing Oakland Center
Fri 09:57:22 AM 36.4336 -120.5844 130° Southeast 443 510 39,000 1,339 Climbing Oakland Center
Fri 09:58:22 AM 36.3356 -120.4431 131° Southeast 448 516 40,100 992 Climbing Oakland Center
Fri 09:59:23 AM 36.2522 -120.3231 131° Southeast 456 525 41,000 443 Climbing Oakland Center
Fri 10:00:24 AM 36.1706 -120.2050 131° Southeast 452 520 41,000  Level Oakland Center
Fri 10:01:25 AM 36.0897 -120.0864 130° Southeast 450 518 41,000  Level Oakland Center
Fri 10:02:26 AM 36.0075 -119.9700 131° Southeast 449 517 41,000  Level Oakland Center
Fri 10:03:27 AM 35.9256 -119.8547 131° Southeast 446 513 41,000  Level Oakland Center
Fri 10:04:31 AM 35.8414 -119.7344 131° Southeast 450 518 41,000  Level Los Angeles Center
Fri 10:05:32 AM 35.7578 -119.6156 131° Southeast 455 524 41,000  Level Los Angeles Center
Fri 10:06:29 AM 35.6767 -119.5017 131° Southeast 450 518 41,000  Level Oakland Center
Fri 10:07:30 AM 35.5928 -119.3831 131° Southeast 455 524 41,000  Level Oakland Center
Fri 10:08:31 AM 35.5097 -119.2678 131° Southeast 452 520 41,000  Level Oakland Center
Fri 10:09:32 AM 35.4258 -119.1500 131° Southeast 455 524 41,000  Level Oakland Center
Fri 10:10:33 AM 35.3428 -119.0356 132° Southeast 451 519 41,000 -793 Level Oakland Center
Fri 10:11:33 AM 35.2603 -118.9217 132° Southeast 448 516 39,400 -2,132 Descending Oakland Center
Fri 10:12:34 AM 35.1792 -118.8083 131° Southeast 444 511 36,700 -2,656 Descending Oakland Center
Fri 10:13:35 AM 35.0981 -118.6961 131° Southeast 441 507 34,000 -2,459 Descending Oakland Center
Fri 10:14:36 AM 35.0183 -118.5878 132° Southeast 435 501 31,700 -2,318 Descending Oakland Center
Fri 10:15:47 AM 34.9197 -118.4533 132° Southeast 406 467 28,900 -1,940 Descending Los Angeles Center
Fri 10:16:49 AM 34.8478 -118.3589 133° Southeast 388 447 27,400 -1,220 Descending Los Angeles Center
Fri 10:17:50 AM 34.7806 -118.2658 131° Southeast 372 428 26,400 -889 Descending Los Angeles Center
Fri 10:19:04 AM 34.7139 -118.1758 132° Southeast 363 418 25,400 -1,456 Descending Los Angeles Center
Fri 10:20:06 AM 34.6358 -118.0706 132° Southeast 354 407 23,100 -1,561 Descending Los Angeles Center
Fri 10:21:07 AM 34.5878 -117.9733 121° Southeast 340 391 22,200 -1,512 Descending Los Angeles Center
Fri 10:22:09 AM 34.5358 -117.8581 119° Southeast 329 379 20,000 -1,951 Descending Los Angeles Center
Fri 10:23:10 AM 34.4942 -117.7661 119° Southeast 316 364 18,200 -1,659 Descending Los Angeles Center
Fri 10:24:12 AM 34.4539 -117.6769 119° Southeast 306 352 16,600 -1,597 Descending Los Angeles Center
Fri 10:25:14 AM 34.4139 -117.5919 120° Southeast 294 338 14,900 -1,268 Descending Los Angeles Center
Fri 10:26:15 AM 34.3714 -117.4972 119° Southeast 282 325 14,000 -829 Descending Los Angeles Center
Fri 10:27:17 AM 34.3311 -117.4111 120° Southeast 291 335 13,200 -726 Descending Los Angeles Center
Fri 10:28:19 AM 34.2828 -117.3364 128° Southeast 287 330 12,500 -1,220 Descending Los Angeles Center
Fri 10:29:20 AM 34.2022 -117.3122 166° South 290 334 10,700 -1,610 Descending Los Angeles Center
Fri 10:30:22 AM 34.1253 -117.2917 168° South 280 322 9,200 -2,388 Descending Los Angeles Center
Fri 10:31:03 AM 34.0833 -117.3333 219° Southwest 263 303 6,600 -2,460 Descending Southern California TRACON
Fri 10:33:03 AM 34.0500 -117.4833 255° West 199 229 2,600 -1,567 Descending Southern California TRACON
Fri 10:34:03 AM 34.0500 -117.5333 270° West 153 176 1,900 -700 Descending Southern California TRACON
Fri 10:36:00 AM 34.0500 -117.6000 270° West  Level FlightAware Approximate
Fri 10:43:00 AM 34.0560 -117.6012 270° West  Level Estimated
Fri 10:44:00 AM 34.0500 -117.6000 270° West  Level FlightAware Approximate

Login

Don't have an account? Register now (free) for customized features, flight alerts, and more!